Starlink 33688

operational
NORAD ID: 63483 Int'l Des: 2025-070 Owner: SPXS Country: US Constellation: starlink
LEOCIRCULAR

关于 Starlink 33688

正在加载描述...

实时位置

正在加载3D地球...

即将过境

高度历史

Altitude vs Time

uPlot chart will show altitude changes over time

两行轨道根数

1 63483U 25070Z 26063.06040416 .00030701 00000-0 11195-2 0 9996
2 63483 43.0005 291.7307 0001948 261.4923 98.5708 15.27608361 52111
Epoch: Mar 4, 2026 • Age: 17 hours

当前状态

高度 482.4 km
速度 7.63 km/s
星下点 14.17°N, 117.34°W
发射日期 Apr 6, 2025
运行时间 0.9 years
类型 internet

技术详情

分类 Payload
质量 575.00 kg
干质量 530.00 kg
总质量 575.00 kg
长度 0.30 m
直径 4.10 m
跨度 29.00 m
形状 Box + pan
制造商 SPXS
平台类型 Starlink V2MO
阶段状态 In Orbit
所有者/国家 SPXS/US

大型星座

Loading constellations...